User: anonymous
Location: Unspecified
(0.0000°N, 0.0000°E)
Time: 11:33:45
(UTC+00:00)
Language:

Courier 1B Rocket - Orbit

View from above orbital plane
View from above orbital plane
View from above satellite
View from above satellite

Ground track
Ground track

The orbit data is extracted from the following two-line orbital elements,

1 00059U 60013B   14243.56408683  .00000116  00000-0  34791-4 0  9523
2 00059 028.2487 291.6902 0189248 159.3026 201.5303 13.52896200660220
Epoch (UTC): 31 August 2014 13:32:17
Eccentricity: 0.0189248
inclination: 28.2487°
perigee height: 921 km
apogee height: 1202 km
right ascension of ascending node: 291.6902°
argument of perigee: 159.3026°
revolutions per day: 13.52896200
mean anomaly at epoch: 201.5303°
orbit number at epoch: 66022

The dashed part of the orbit path shows where the satellite is in the earth's shadow,  

DLR